FW7016 Weather Reports


Display with metric or nautical units.
time (UTC)temp
F
wind
direction
speed
MPH
gust
MPH
rain 1hr
in
rain 24hr
in
rain mn
in
humidity
%
barometer
mb
20260905161000 83 329 19.0 25.0 0.00 0.00 0.00 27 1020.6
20260905160454 83 7 17.0 21.0 0.00 0.00 0.00 27 1020.6
20260905155953 82 3 20.0 25.0 0.00 0.00 0.00 27 1020.8
20260905155449 82 296 13.0 21.0 0.00 0.00 0.00 27 1020.6
20260905154947 82 3 15.0 23.0 0.00 0.00 0.00 28 1020.9
20260905154442 82 6 18.0 21.0 0.00 0.00 0.00 27 1020.6
20260905153938 82 15 15.0 24.0 0.00 0.00 0.00 28 1020.7
20260905153434 82 353 18.0 22.0 0.00 0.00 0.00 27 1020.7
20260905152933 82 351 12.0 20.0 0.00 0.00 0.00 28 1020.9
20260905152433 81 357 13.0 24.0 0.00 0.00 0.00 28 1020.7
20260905151928 81 344 12.0 22.0 0.00 0.00 0.00 28 1020.6
20260905151424 80 325 13.0 17.0 0.00 0.00 0.00 29 1020.6
20260905150924 80 344 14.0 23.0 0.00 0.00 0.00 30 1020.2
20260905150419 79 3 11.0 23.0 0.00 0.00 0.00 31 1020.2
20260905145915 79 309 17.0 23.0 0.00 0.00 0.00 30 1020.2
20260905145410 79 5 17.0 26.0 0.00 0.00 0.00 30 1020.1
20260905144909 79 326 19.0 24.0 0.00 0.00 0.00 31 1020.2
20260905144405 78 320 17.0 21.0 0.00 0.00 0.00 31 1020.1
20260905143903 78 298 15.0 20.0 0.00 0.00 0.00 32 1020.2
20260905143358 78 285 15.0 20.0 0.00 0.00 0.00 33 1020.4
20260905142857 77 317 14.0 20.0 0.00 0.00 0.00 34 1020.3
20260905142356 75 302 16.0 21.0 0.00 0.00 0.00 36 1020.1
20260905141852 74 318 13.0 16.0 0.00 0.00 0.00 39 1020.3
20260905141347 74 309 15.0 20.0 0.00 0.00 0.00 38 1020.3
20260905140843 74 309 14.0 17.0 0.00 0.00 0.00 39 1019.9
20260905140343 73 319 13.0 17.0 0.00 0.00 0.00 40 1020.1
20260905135842 73 312 14.0 16.0 0.00 0.00 0.00 40 1020.0
20260905135338 71 306 17.0 22.0 0.00 0.00 0.00 43 1019.9
20260905134833 70 313 20.0 25.0 0.00 0.00 0.00 44 1019.7
20260905134326 69 302 14.0 24.0 0.00 0.00 0.00 46 1019.9
20260905133820 68 314 13.0 21.0 0.00 0.00 0.00 46 1020.0
20260905133316 68 282 12.0 23.0 0.00 0.00 0.00 47 1019.6
20260905132815 67 307 15.0 21.0 0.00 0.00 0.00 48 1020.0
20260905132311 65 289 9.0 14.0 0.00 0.00 0.00 50 1020.0
20260905131805 64 312 15.0 20.0 0.00 0.00 0.00 55 1019.6
20260905131301 62 283 6.0 9.0 0.00 0.00 0.00 57 1019.6
20260905130801 61 297 7.0 10.0 0.00 0.00 0.00 59 1019.6
20260905130259 61 291 8.0 10.0 0.00 0.00 0.00 60 1019.7
20260905125755 61 298 7.0 11.0 0.00 0.00 0.00 59 1019.5
20260905125250 60 275 7.0 11.0 0.00 0.00 0.00 60 1019.5
20260905124747 59 263 7.0 11.0 0.00 0.00 0.00 61 1019.4
20260905124243 58 232 6.0 7.0 0.00 0.00 0.00 65 1019.4
20260905123738 59 234 5.0 9.0 0.00 0.00 0.00 63 1019.1
20260905123235 57 298 7.0 10.0 0.00 0.00 0.00 63 1019.5
20260905122734 57 302 6.0 7.0 0.00 0.00 0.00 67 1019.1
20260905122228 57 242 6.0 7.0 0.00 0.00 0.00 64 1019.5
20260905121724 56 289 4.0 6.0 0.00 0.00 0.00 66 1019.3
20260905121221 55 288 5.0 8.0 0.00 0.00 0.00 69 1019.3
20260905120719 55 277 5.0 7.0 0.00 0.00 0.00 69 1019.1
20260905120214 56 285 5.0 7.0 0.00 0.00 0.00 68 1019.5
20260905115714 55 303 4.0 5.0 0.00 0.00 0.00 68 1019.3
20260905115208 55 292 3.0 5.0 0.00 0.00 0.00 69 1019.3
20260905114708 56 275 5.0 6.0 0.00 0.00 0.00 68 1019.1
20260905114206 56 297 3.0 6.0 0.00 0.00 0.00 67 1019.4
20260905113707 55 323 5.0 5.0 0.00 0.00 0.00 68 1019.5
20260905113203 55 289 3.0 3.0 0.00 0.00 0.00 68 1019.4
20260905112702 56 284 6.0 7.0 0.00 0.00 0.00 67 1019.4
20260905112157 57 269 6.0 7.0 0.00 0.00 0.00 67 1019.5
20260905111652 57 239 3.0 3.0 0.00 0.00 0.00 66 1019.6
20260905111151 56 199 0.0 0.0 0.00 0.00 0.00 67 1019.7
20260905110651 56 256 4.0 6.0 0.00 0.00 0.00 67 1019.4
20260905110145 55 296 5.0 7.0 0.00 0.00 0.00 67 1019.5
20260905105641 55 260 5.0 6.0 0.00 0.00 0.00 68 1019.6
20260905105140 55 272 3.0 5.0 0.00 0.00 0.00 69 1019.5
20260905104635 55 253 4.0 7.0 0.00 0.00 0.00 69 1019.3
20260905104130 55 287 5.0 7.0 0.00 0.00 0.00 68 1019.5
20260905103626 55 292 7.0 7.0 0.00 0.00 0.00 69 1019.4
20260905103121 55 296 5.0 6.0 0.00 0.00 0.00 69 1019.4
20260905102617 55 185 0.0 0.0 0.00 0.00 0.00 70 1019.3
20260905102114 55 257 4.0 5.0 0.00 0.00 0.00 69 1019.3
20260905101611 55 208 1.0 2.0 0.00 0.00 0.00 71 1019.5
20260905101109 55 191 0.0 0.0 0.00 0.00 0.00 70 1019.3
20260905100606 56 192 0.0 1.0 0.00 0.00 0.00 72 1019.3
20260905100101 57 270 3.0 5.0 0.00 0.00 0.00 68 1019.3
20260905095555 57 208 0.0 0.0 0.00 0.00 0.00 68 1019.3
20260905095051 57 198 0.0 0.0 0.00 0.00 0.00 68 1019.3
20260905094546 57 197 0.0 0.0 0.00 0.00 0.00 69 1019.5
20260905094045 57 196 0.0 0.0 0.00 0.00 0.00 69 1019.3
20260905093544 57 190 0.0 0.0 0.00 0.00 0.00 69 1019.1
20260905093042 56 189 0.0 0.0 0.00 0.00 0.00 69 1019.4
20260905092536 56 196 0.0 0.0 0.00 0.00 0.00 69 1019.0
20260905092031 56 192 0.0 0.0 0.00 0.00 0.00 69 1019.0
20260905091531 56 239 0.0 0.0 0.00 0.00 0.00 70 1018.7
20260905091031 57 195 0.0 0.0 0.00 0.00 0.00 68 1018.9
20260905090531 57 203 0.0 0.0 0.00 0.00 0.00 67 1019.1
20260905090026 57 185 1.0 3.0 0.00 0.00 0.00 68 1018.9
20260905085524 57 241 0.0 0.0 0.00 0.00 0.00 67 1018.9
20260905085021 57 189 0.0 0.0 0.00 0.00 0.00 68 1018.9
20260905084520 57 194 0.0 0.0 0.00 0.00 0.00 69 1019.1
20260905084016 57 193 0.0 0.0 0.00 0.00 0.00 70 1019.1
20260905083510 57 192 0.0 0.0 0.00 0.00 0.00 70 1019.0
20260905083007 57 192 0.0 0.0 0.00 0.00 0.00 70 1019.1
20260905082502 56 206 1.0 2.0 0.00 0.00 0.00 71 1019.1
20260905081957 56 246 0.0 0.0 0.00 0.00 0.00 71 1019.3
20260905081452 56 188 0.0 0.0 0.00 0.00 0.00 72 1019.1
20260905080951 56 195 0.0 0.0 0.00 0.00 0.00 71 1019.4
20260905080446 55 203 0.0 0.0 0.00 0.00 0.00 72 1019.3
20260905075945 56 187 0.0 1.0 0.00 0.00 0.00 74 1019.6
20260905075439 57 173 0.0 0.0 0.00 0.00 0.00 67 1019.1
20260905074938 57 186 0.0 0.0 0.00 0.00 0.00 68 1018.9
20260905074434 57 186 0.0 0.0 0.00 0.00 0.00 68 1019.0
20260905073929 58 190 0.0 0.0 0.00 0.00 0.00 67 1018.9
20260905073424 58 190 0.0 0.0 0.00 0.00 0.00 66 1018.9
20260905072920 58 211 0.0 0.0 0.00 0.00 0.00 65 1018.7
20260905072415 58 237 0.0 0.0 0.00 0.00 0.00 65 1019.0
20260905071910 59 192 0.0 0.0 0.00 0.00 0.00 69 1019.3
20260905071407 59 193 0.0 2.0 0.00 0.00 0.00 62 1018.9
20260905070901 60 221 2.0 2.0 0.00 0.00 0.00 62 1019.0
20260905070357 60 190 0.0 0.0 0.00 0.00 0.00 62 1019.0
20260905065857 61 190 0.0 0.0 0.00 0.00 0.00 61 1019.1
20260905065355 60 190 0.0 0.0 0.00 0.00 0.00 61 1019.0
20260905064851 60 202 1.0 2.0 0.00 0.00 0.00 60 1019.0
20260905064346 60 188 0.0 0.0 0.00 0.00 0.00 61 1019.1
20260905063844 60 212 0.0 0.0 0.00 0.00 0.00 60 1018.9
20260905063340 60 189 0.0 0.0 0.00 0.00 0.00 60 1018.9
20260905062836 60 186 0.0 0.0 0.00 0.00 0.00 59 1018.9
20260905062331 60 191 0.0 0.0 0.00 0.00 0.00 60 1019.1
20260905061825 60 189 0.0 0.0 0.00 0.00 0.00 59 1019.0
20260905061320 61 218 0.0 0.0 0.00 0.00 0.00 62 1019.0
20260905060819 62 186 0.0 0.0 0.00 0.00 0.00 61 1018.9
20260905060316 62 188 0.0 0.0 0.00 0.00 0.00 53 1019.1
20260905055815 62 193 0.0 0.0 0.00 0.00 0.00 59 1019.0
20260905055310 62 200 1.0 2.0 0.00 0.00 0.00 59 1019.0
20260905054805 62 193 0.0 0.0 0.00 0.00 0.00 57 1019.1
20260905054302 63 214 0.0 0.0 0.00 0.00 0.00 54 1018.8
20260905053801 64 219 0.0 0.0 0.00 0.00 0.00 54 1018.9
20260905053256 64 185 0.0 0.0 0.00 0.00 0.00 52 1018.7
20260905052755 64 206 0.0 0.0 0.00 0.00 0.00 51 1018.8
20260905052250 64 226 0.0 0.0 0.00 0.00 0.00 52 1019.0
20260905051750 65 218 0.0 0.0 0.00 0.00 0.00 51 1018.8
20260905051247 65 197 0.0 0.0 0.00 0.00 0.00 51 1018.8
20260905050743 65 189 0.0 0.0 0.00 0.00 0.00 51 1018.8
20260905050239 66 183 0.0 0.0 0.00 0.00 0.00 52 1019.0
20260905045739 67 187 0.0 0.0 0.00 0.00 0.00 48 1019.1
20260905045235 67 185 0.0 0.0 0.00 0.00 0.00 50 1019.0
20260905044730 68 194 0.0 0.0 0.00 0.00 0.00 47 1019.1
20260905044225 67 192 0.0 0.0 0.00 0.00 0.00 47 1018.9
20260905043723 66 196 0.0 0.0 0.00 0.00 0.00 49 1018.8
20260905043218 67 176 0.0 0.0 0.00 0.00 0.00 47 1018.9
20260905042718 68 176 0.0 0.0 0.00 0.00 0.00 45 1019.0
20260905042217 68 176 0.0 0.0 0.00 0.00 0.00 44 1019.1
20260905041713 68 176 0.0 0.0 0.00 0.00 0.00 44 1018.8
20260905041208 66 88 0.0 0.0 0.00 0.00 0.00 51 1018.9
20260905040703 65 193 0.0 0.0 0.00 0.00 0.00 51 1018.9
20260905040202 66 190 0.0 0.0 0.00 0.00 0.00 53 1019.0
20260905035657 67 190 0.0 0.0 0.00 0.00 0.00 49 1019.0
20260905035154 66 179 0.0 0.0 0.00 0.00 0.00 48 1018.7
20260905034650 66 183 0.0 0.0 0.00 0.00 0.00 52 1018.8
20260905034149 68 190 0.0 2.0 0.00 0.00 0.00 48 1019.0
20260905033648 69 175 3.0 5.0 0.00 0.00 0.00 42 1019.0
20260905033144 69 152 5.0 6.0 0.00 0.00 0.00 44 1018.9
20260905032643 69 162 4.0 6.0 0.00 0.00 0.00 43 1018.7
20260905032138 69 156 5.0 7.0 0.00 0.00 0.00 43 1019.0
20260905031634 70 166 0.0 0.0 0.00 0.00 0.00 43 1019.1
20260905031130 71 178 4.0 6.0 0.00 0.00 0.00 41 1018.8
20260905030629 71 189 5.0 6.0 0.00 0.00 0.00 41 1018.6
20260905030125 71 209 5.0 6.0 0.00 0.00 0.00 41 1018.7
20260905025619 71 229 5.0 7.0 0.00 0.00 0.00 42 1018.7
20260905025115 71 201 7.0 7.0 0.00 0.00 0.00 42 1018.4
20260905024611 72 182 5.0 6.0 0.00 0.00 0.00 40 1018.6
20260905024107 73 191 5.0 6.0 0.00 0.00 0.00 39 1018.4
20260905023602 73 172 5.0 6.0 0.00 0.00 0.00 40 1018.6
20260905023102 73 170 5.0 6.0 0.00 0.00 0.00 41 1018.6
20260905022601 72 166 5.0 7.0 0.00 0.00 0.00 41 1018.3
20260905022057 72 162 0.0 3.0 0.00 0.00 0.00 42 1018.4
20260905021556 74 153 1.0 6.0 0.00 0.00 0.00 41 1018.4
20260905021052 75 160 6.0 7.0 0.00 0.00 0.00 39 1018.1
20260905020551 75 176 6.0 8.0 0.00 0.00 0.00 39 1018.1
20260905020047 75 182 5.0 8.0 0.00 0.00 0.00 39 1018.3
20260905015544 75 150 5.0 8.0 0.00 0.00 0.00 40 1018.3
20260905015039 75 169 7.0 8.0 0.00 0.00 0.00 40 1018.2
20260905014534 75 162 5.0 6.0 0.00 0.00 0.00 40 1018.1
20260905014029 75 158 4.0 6.0 0.00 0.00 0.00 40 1018.1
20260905013526 75 149 5.0 8.0 0.00 0.00 0.00 40 1017.9
20260905013021 75 162 6.0 7.0 0.00 0.00 0.00 40 1017.9
20260905012515 76 154 5.0 6.0 0.00 0.00 0.00 41 1017.9
20260905012013 77 154 3.0 5.0 0.00 0.00 0.00 41 1018.0
20260905011508 78 153 3.0 5.0 0.00 0.00 0.00 40 1018.0
20260905011003 79 164 3.0 5.0 0.00 0.00 0.00 38 1017.7
20260905010503 80 166 5.0 6.0 0.00 0.00 0.00 37 1017.9
20260905005959 81 155 5.0 7.0 0.00 0.00 0.00 35 1017.9
20260905005455 82 140 7.0 9.0 0.00 0.00 0.00 34 1017.7
20260905004950 82 154 7.0 10.0 0.00 0.00 0.00 33 1017.5
20260905004445 83 149 9.0 10.0 0.00 0.00 0.00 32 1017.7
20260905003940 84 158 8.0 10.0 0.00 0.00 0.00 31 1017.6
20260905003436 84 148 9.0 13.0 0.00 0.00 0.00 30 1017.7
20260905002932 84 148 13.0 18.0 0.00 0.00 0.00 29 1017.7
20260905002432 85 165 9.0 14.0 0.00 0.00 0.00 28 1017.7
20260905001931 86 163 9.0 15.0 0.00 0.00 0.00 27 1017.5
20260905001427 86 169 12.0 15.0 0.00 0.00 0.00 26 1017.5
20260905000921 86 145 9.0 13.0 0.00 0.00 0.00 25 1017.7
20260905000417 87 171 12.0 15.0 0.00 0.00 0.00 24 1017.7
20260904235912 87 191 12.0 16.0 0.00 0.00 0.00 24 1017.6
20260904235408 87 211 9.0 13.0 0.00 0.00 0.00 27 1017.6
20260904234908 87 191 7.0 11.0 0.00 0.00 0.00 26 1017.5
20260904234403 87 177 9.0 11.0 0.00 0.00 0.00 25 1017.3
20260904233858 88 187 5.0 9.0 0.00 0.00 0.00 25 1017.6
20260904233354 87 195 5.0 10.0 0.00 0.00 0.00 24 1017.5
20260904232850 88 159 9.0 15.0 0.00 0.00 0.00 24 1017.4
20260904232346 88 131 10.0 15.0 0.00 0.00 0.00 24 1017.5
20260904231842 87 172 9.0 17.0 0.00 0.00 0.00 24 1017.4
20260904231336 88 150 6.0 11.0 0.00 0.00 0.00 23 1017.5
20260904230832 89 184 14.0 15.0 0.00 0.00 0.00 21 1017.6
20260904230330 88 163 13.0 16.0 0.00 0.00 0.00 22 1017.4
20260904225825 88 181 9.0 17.0 0.00 0.00 0.00 22 1017.7
20260904225324 89 181 8.0 16.0 0.00 0.00 0.00 21 1017.7
20260904224824 89 203 8.0 10.0 0.00 0.00 0.00 22 1017.7
20260904224320 88 184 9.0 14.0 0.00 0.00 0.00 22 1017.7
20260904223818 88 206 13.0 16.0 0.00 0.00 0.00 23 1017.6
20260904223313 88 168 7.0 11.0 0.00 0.00 0.00 23 1017.6
20260904222810 87 162 8.0 18.0 0.00 0.00 0.00 23 1017.6
20260904222306 88 171 15.0 16.0 0.00 0.00 0.00 23 1017.7
20260904221804 88 197 9.0 15.0 0.00 0.00 0.00 24 1017.7
20260904221259 88 164 10.0 20.0 0.00 0.00 0.00 25 1017.9
20260904220754 87 200 7.0 10.0 0.00 0.00 0.00 25 1017.5
20260904220253 88 218 6.0 10.0 0.00 0.00 0.00 27 1017.6
20260904215748 88 170 4.0 8.0 0.00 0.00 0.00 22 1017.7
20260904215244 88 214 6.0 9.0 0.00 0.00 0.00 23 1017.6
20260904214739 88 222 11.0 14.0 0.00 0.00 0.00 24 1017.6
20260904214235 88 171 13.0 16.0 0.00 0.00 0.00 23 1017.7
20260904213733 88 182 11.0 18.0 0.00 0.00 0.00 25 1018.1
20260904213229 88 174 14.0 18.0 0.00 0.00 0.00 24 1017.9
20260904212725 87 178 8.0 14.0 0.00 0.00 0.00 24 1018.0
20260904212220 89 173 8.0 15.0 0.00 0.00 0.00 24 1017.9
20260904211719 89 169 15.0 20.0 0.00 0.00 0.00 25 1018.0
20260904211214 88 220 5.0 7.0 0.00 0.00 0.00 25 1018.1
20260904210709 88 188 11.0 16.0 0.00 0.00 0.00 21 1018.1
20260904210204 88 197 9.0 11.0 0.00 0.00 0.00 29 1018.1
20260904205659 88 158 10.0 13.0 0.00 0.00 0.00 24 1017.9
20260904205155 88 157 11.0 15.0 0.00 0.00 0.00 24 1018.2
20260904204652 88 170 9.0 10.0 0.00 0.00 0.00 22 1018.1
20260904204147 88 201 11.0 20.0 0.00 0.00 0.00 28 1018.0
20260904203643 87 217 7.0 8.0 0.00 0.00 0.00 22 1018.3
20260904203140 88 219 14.0 17.0 0.00 0.00 0.00 24 1018.2
20260904202635 89 166 11.0 14.0 0.00 0.00 0.00 24 1018.1
20260904202131 89 169 7.0 14.0 0.00 0.00 0.00 25 1018.0
20260904201626 89 164 10.0 14.0 0.00 0.00 0.00 23 1018.1
20260904201121 87 179 11.0 16.0 0.00 0.00 0.00 23 1018.1
20260904200620 88 193 9.0 11.0 0.00 0.00 0.00 29 1018.1
20260904200115 88 220 6.0 7.0 0.00 0.00 0.00 27 1018.2
20260904195614 88 202 11.0 15.0 0.00 0.00 0.00 28 1018.1
20260904195108 87 169 7.0 9.0 0.00 0.00 0.00 31 1018.2
20260904194608 86 223 10.0 15.0 0.00 0.00 0.00 29 1018.1
20260904194103 88 216 7.0 16.0 0.00 0.00 0.00 32 1017.9
20260904193557 87 209 8.0 10.0 0.00 0.00 0.00 29 1018.1
20260904193054 88 220 8.0 10.0 0.00 0.00 0.00 28 1018.0
20260904192554 88 214 8.0 13.0 0.00 0.00 0.00 29 1018.0
20260904192049 88 145 9.0 22.0 0.00 0.00 0.00 26 1018.1
20260904191546 87 187 12.0 23.0 0.00 0.00 0.00 28 1018.0
20260904191042 87 209 7.0 15.0 0.00 0.00 0.00 32 1018.2
20260904190537 88 196 9.0 16.0 0.00 0.00 0.00 31 1018.1
20260904190034 88 206 8.0 13.0 0.00 0.00 0.00 28 1018.1
20260904185530 87 155 11.0 14.0 0.00 0.00 0.00 27 1018.3
20260904185024 88 217 5.0 7.0 0.00 0.00 0.00 28 1018.3
20260904184519 87 239 2.0 5.0 0.00 0.00 0.00 26 1018.2
20260904184014 88 211 12.0 14.0 0.00 0.00 0.00 27 1018.3
20260904183509 89 220 6.0 7.0 0.00 0.00 0.00 26 1018.3
20260904183004 86 185 0.0 0.0 0.00 0.00 0.00 25 1018.6
20260904182459 87 62 4.0 6.0 0.00 0.00 0.00 25 1018.6
20260904181953 87 237 7.0 11.0 0.00 0.00 0.00 28 1018.8
20260904181449 87 286 9.0 10.0 0.00 0.00 0.00 28 1018.8
20260904180944 87 228 6.0 8.0 0.00 0.00 0.00 34 1018.8
20260904180438 87 211 1.0 2.0 0.00 0.00 0.00 26 1018.7
20260904175938 87 305 5.0 9.0 0.00 0.00 0.00 26 1018.8
20260904175437 87 218 4.0 9.0 0.00 0.00 0.00 27 1019.0
20260904174931 86 278 10.0 11.0 0.00 0.00 0.00 28 1019.0
20260904174427 86 234 5.0 11.0 0.00 0.00 0.00 27 1019.0
20260904173924 86 317 4.0 9.0 0.00 0.00 0.00 27 1018.9
20260904173419 86 261 10.0 14.0 0.00 0.00 0.00 29 1019.0
20260904172914 86 296 10.0 13.0 0.00 0.00 0.00 28 1018.9
20260904172408 85 270 5.0 10.0 0.00 0.00 0.00 29 1018.9
20260904171903 86 218 7.0 9.0 0.00 0.00 0.00 31 1018.8
20260904171358 85 276 9.0 14.0 0.00 0.00 0.00 29 1019.0
20260904170854 85 243 8.0 14.0 0.00 0.00 0.00 29 1018.9
20260904170349 85 243 11.0 13.0 0.00 0.00 0.00 30 1018.8
20260904165844 84 255 8.0 14.0 0.00 0.00 0.00 29 1018.9
20260904165337 85 259 10.0 18.0 0.00 0.00 0.00 31 1018.9
20260904164832 85 296 14.0 18.0 0.00 0.00 0.00 29 1018.9
20260904164327 84 289 15.0 16.0 0.00 0.00 0.00 29 1018.9
20260904163824 84 287 10.0 14.0 0.00 0.00 0.00 31 1019.0
20260904163323 84 246 9.0 15.0 0.00 0.00 0.00 33 1018.9
20260904162822 84 338 12.0 16.0 0.00 0.00 0.00 30 1018.8
20260904162318 83 270 13.0 16.0 0.00 0.00 0.00 29 1018.7
20260904161814 83 258 10.0 14.0 0.00 0.00 0.00 31 1018.9
20260904161313 82 13 9.0 13.0 0.00 0.00 0.00 31 1018.8